Probability
50 51 52 50 50 50 47 45 45 43 43 43 42 40 37 34 31 27 24 22 24 26 28 29 28 28 27 24 23 21 19 21 21 17 11 10 12 14 14 14 11 10 10
51 53 52 48 47 47 46 44 43 41 39 37 35 33 31 29 29 27 23 20 20 22 24 26 27 27 25 23 21 20 17 18 19 17 13 10 9 9 9 11 10 9 10
53 54 52 47 44 44 43 42 41 40 37 32 28 27 26 25 24 23 21 18 17 17 18 20 22 23 21 18 16 15 15 15 15 15 14 12 10 8 7 8 8 9 11
55 53 50 45 41 40 40 40 40 40 37 32 29 27 25 22 18 17 17 17 16 14 13 14 16 16 14 13 12 13 14 13 13 12 13 14 13 11 10 8 6 8 10
54 50 45 41 39 39 37 36 36 36 34 33 32 28 23 18 14 12 13 14 14 13 11 10 11 11 10 9 10 11 12 11 11 11 11 12 12 13 12 9 7 6 7
52 46 40 38 38 37 34 32 32 32 31 29 27 24 19 15 12 9 8 8 10 11 9 7 8 9 7 6 7 7 7 7 8 9 9 9 9 11 11 8 6 5 6
49 44 38 36 36 34 30 28 27 28 27 24 20 17 14 12 9 5 3 3 5 7 6 5 6 7 5 3 3 4 4 4 6 7 7 7 6 8 9 7 5 3 4
45 42 38 35 32 30 27 24 23 23 20 17 14 10 8 8 7 4 2 1 2 3 3 4 5 5 3 1 1 3 3 3 4 4 5 5 4 5 7 6 4 3 2
41 40 37 33 27 24 22 20 18 15 12 10 8 5 4 4 4 4 2 1 1 2 3 3 3 2 1 0 1 2 2 3 3 3 4 4 4 4 5 5 5 4 2
40 38 34 28 22 19 17 16 13 10 8 6 4 1 0 1 1 1 1 1 1 2 2 2 1 0 0 0 0 1 1 2 3 3 4 4 4 3 3 4 4 5 4
39 36 30 23 19 16 13 11 9 7 6 5 3 1 0 0 0 0 0 1 2 3 2 1 0 0 0 0 0 0 1 2 3 3 3 3 2 1 1 1 2 3 4
36 32 26 21 16 11 9 7 5 4 3 3 2 1 0 0 0 0 0 1 2 2 2 1 0 0 0 0 0 0 1 2 2 1 1 1 0 0 0 0 0 1 1
31 27 22 16 11 6 4 3 1 1 1 1 1 0 0 0 0 0 0 0 1 1 2 1 0 0 0 0 0 0 0 1 1 0 0 0 0 0 0 0 0 0 1
22 20 15 10 6 3 1 0 0 0 0 0 0 0 0 0 0 0 0 0 0 0 0 0 0 0 0 0 0 0 0 0 0 0 0 0 0 0 0 0 0 1 2
11 10 7 4 2 1 0 0 0 0 0 0 0 0 0 0 0 0 0 0 0 0 0 0 0 0 0 0 0 0 0 0 0 0 0 0 0 0 0 0 0 1 2
5 4 3 1 1 0 0 0 0 0 0 0 0 0 0 0 0 0 0 0 0 0 0 0 0 0 0 0 0 0 0 0 0 0 0 0 0 0 0 0 0 0 1
3 3 1 0 0 0 0 0 0 0 0 0 0 0 0 0 0 0 0 0 0 0 0 0 0 0 0 0 0 0 0 0 0 0 0 0 0 0 0 0 0 0 0
3 2 1 0 0 0 0 0 0 0 0 0 0 0 0 0 0 0 0 0 0 0 0 0 0 0 0 0 0 0 0 0 0 0 0 0 0 0 0 0 0 0 0
3 2 1 0 0 0 0 0 0 0 0 0 0 0 0 0 0 0 0 0 0 0 0 0 0 0 0 0 0 0 0 0 0 0 0 0 0 0 0 0 0 0 0
2 1 0 0 0 0 0 0 0 0 0 0 0 0 0 0 0 0 0 0 0 0 0 0 0 0 0 0 0 0 0 0 0 0 0 0 0 0 0 0 0 0 0
2 1 0 0 0 0 0 0 0 0 0 0 0 0 0 0 0 0 0 0 0 0 0 0 0 0 0 0 0 0 0 0 0 0 0 0 0 0 0 0 0 0 0
1 0 0 0 0 0 0 0 0 0 0 0 0 0 0 0 0 0 0 0 0 0 0 0 0 0 0 0 0 0 0 0 0 0 0 0 0 0 0 0 0 0 0
0 0 0 0 0 0 0 0 0 0 0 0 0 0 0 0 0 0 0 0 0 0 0 0 0 0 0 0 0 0 0 0 0 0 0 0 0 0 0 0 0 0 0
1 1 0 0 0 0 0 0 0 0 0 0 0 0 0 0 0 0 0 0 0 0 0 0 0 0 0 0 0 0 0 0 0 0 0 0 0 0 0 0 0 0 0
0 0 0 0 0 0 0 0 0 0 0 0 0 0 0 0 0 0 0 0 0 0 0 0 0 0 0 0 0 0 0 0 0 0 0 0 0 0 0 0 0 0 0
0 0 0 0 0 0 0 0 0 0 0 0 0 0 0 0 0 0 0 0 0 0 0 0 0 0 0 0 0 0 0 0 0 0 0 0 0 0 0 0 0 0 0
Wind_Speed
12 9 8 8 8 7 6 5 4 3 2 1 1 1 1 1 1 2 3 2 1 1 1 1 1 1 1 2 3 2 2 2 2 2 2 2 3 2 2 2 2 2 2
12 10 9 9 8 7 6 5 4 3 2 2 1 0 0 0 1 2 2 2 1 1 1 1 1 1 1 2 2 2 2 2 2 2 2 2 1 1 2 1 2 2 2
14 12 9 8 8 7 6 6 5 4 3 2 1 1 1 0 1 1 1 2 1 1 2 1 1 1 2 2 2 2 3 2 2 2 2 2 1 0 0 1 0 1 2
14 12 11 9 8 7 7 6 5 5 4 3 3 2 1 1 1 1 1 1 1 1 2 1 1 1 2 2 2 1 2 2 3 3 3 3 1 1 0 0 1 2 2
13 12 11 9 9 8 7 6 5 5 5 4 5 4 3 2 2 2 1 1 0 0 2 2 2 2 2 2 2 2 2 2 3 3 2 2 2 3 2 2 1 1 2
12 11 11 10 9 8 7 6 6 5 4 5 5 5 4 3 3 3 2 1 1 0 2 2 2 2 2 2 2 2 3 2 3 3 2 2 2 2 2 2 2 1 1
12 12 11 10 9 8 7 6 6 5 4 4 4 4 3 3 3 3 3 2 2 1 2 2 2 2 2 2 2 2 3 3 3 2 2 2 2 1 1 1 1 1 1
12 12 10 10 9 8 7 5 5 4 3 4 4 3 3 3 3 4 4 3 2 2 2 2 2 3 3 3 2 2 2 2 2 3 3 2 2 1 1 1 2 2 1
12 12 11 9 9 8 6 5 4 3 4 4 3 3 4 4 4 3 3 3 3 3 4 3 3 3 3 2 2 1 2 2 2 2 2 2 2 1 1 1 2 3 3
12 11 10 9 8 7 6 5 4 3 3 3 2 3 3 3 3 3 4 3 3 3 3 3 3 3 3 2 2 1 1 2 2 2 2 2 2 2 1 1 1 1 2
12 11 9 9 8 7 6 5 4 3 3 4 3 3 3 3 2 2 3 3 3 3 3 3 3 2 2 2 2 2 1 1 2 2 2 2 2 2 1 1 0 1 2
12 11 10 8 7 6 5 4 3 3 3 3 3 3 3 3 4 3 3 3 3 4 4 3 3 3 3 2 2 3 3 2 2 2 2 2 1 1 1 1 1 1 3
11 10 8 7 6 6 4 4 3 3 3 3 3 3 3 4 4 4 4 4 3 3 4 4 3 4 3 3 3 3 3 4 4 3 3 2 2 2 1 1 1 2 3
11 9 8 7 6 5 4 3 3 3 3 3 3 3 3 3 3 3 4 4 3 3 3 3 3 3 4 5 5 4 4 4 4 4 4 4 3 2 2 2 2 4 5
10 10 8 7 5 5 4 3 3 3 3 3 3 3 3 3 4 4 3 3 3 4 4 4 4 4 5 6 6 4 4 4 4 4 5 5 7 6 4 4 4 4 5
10 9 9 8 6 5 4 4 3 3 3 3 3 3 3 3 4 3 3 3 3 4 4 5 5 6 6 8 9 5 4 3 3 4 4 5 7 9 9 8 7 5 5
10 9 8 7 5 4 4 4 3 3 3 3 2 3 3 3 3 3 4 4 4 5 5 5 5 6 7 10 9 8 3 3 3 3 3 5 6 6 6 8 9 8 8
9 9 7 7 5 4 4 3 3 2 3 3 3 3 3 3 3 3 3 4 4 4 4 4 5 5 7 9 9 8 4 4 4 5 5 5 5 5 4 7 7 6 5
9 8 7 7 6 5 4 3 3 2 3 3 3 3 4 3 3 4 3 3 3 3 3 4 4 5 6 10 9 7 3 4 5 6 6 5 5 7 6 6 6 6 5
8 8 7 7 6 5 4 3 3 3 3 3 3 3 3 3 4 3 3 3 2 3 3 4 4 5 5 8 10 7 2 4 4 5 6 9 7 7 6 4 5 6 5
9 8 7 6 5 5 3 3 3 3 3 3 3 3 3 3 3 3 2 2 2 3 3 3 3 4 4 7 10 9 3 2 3 4 4 4 6 7 6 5 5 5 3
9 7 6 5 5 4 3 3 4 3 3 3 3 3 3 2 4 3 2 1 2 2 2 2 2 2 3 6 7 9 8 5 4 4 4 4 5 6 6 5 4 3 2
8 6 6 6 4 4 4 4 4 3 3 4 3 3 2 3 2 2 2 1 1 1 1 1 2 2 3 3 6 7 9 9 5 4 5 4 3 3 3 3 2 2 1
6 5 6 5 5 4 4 4 4 4 3 3 3 2 2 3 3 2 2 2 2 1 1 1 3 3 2 3 2 2 2 3 3 2 3 2 1 1 1 1 1 1 0
5 5 5 5 5 5 5 5 4 4 3 3 3 3 3 3 3 3 4 4 4 3 2 3 2 2 3 2 3 3 3 3 4 2 1 2 2 2 2 2 1 1 1
5 5 5 5 5 5 5 4 4 4 4 3 2 2 2 2 3 4 3 5 4 4 6 6 4 4 4 3 2 4 4 5 6 3 2 1 2 2 2 2 2 1 1
Wind_Direction
133 127 118 114 114 111 108 102 95 93 86 73 61 83 78 83 87 93 78 53 31 352 287 337 278 258 242 252 257 235 232 234 228 256 272 259 239 218 212 208 199 190 197
133 130 130 127 123 119 116 112 101 94 84 72 59 75 73 98 102 76 88 76 23 313 286 80 298 309 282 257 251 244 246 249 228 241 254 239 237 221 219 198 193 188 171
143 142 142 131 123 119 108 99 87 82 65 56 66 56 89 0 91 85 95 64 21 346 341 345 342 318 285 276 271 251 243 257 264 245 241 242 223 64 237 239 194 118 95
144 145 138 130 119 112 104 94 85 73 55 43 42 35 55 52 42 47 60 59 17 339 335 344 330 309 303 298 286 291 281 260 263 257 244 249 250 215 207 169 89 90 89
142 141 137 131 122 113 104 100 92 78 61 48 46 31 31 26 13 15 32 29 212 347 356 6 354 337 315 311 309 315 295 287 272 269 265 254 245 232 216 214 170 111 83
139 136 131 124 114 107 103 96 87 78 67 58 55 42 26 23 11 357 353 346 338 21 23 5 354 337 336 335 322 316 296 288 289 291 289 271 253 238 221 215 193 146 107
141 137 134 129 119 113 105 97 92 85 76 71 63 46 22 12 10 355 355 350 345 10 25 4 346 334 325 313 318 314 306 302 303 295 290 282 277 278 262 204 191 151 123
141 136 132 129 126 118 108 102 98 88 79 73 61 45 27 20 27 16 353 347 351 5 11 355 341 325 318 320 338 311 307 316 313 305 306 300 290 280 245 207 187 175 156
136 132 132 130 125 120 115 107 97 88 78 73 62 57 42 30 24 8 358 1 1 355 2 351 343 340 337 333 325 322 320 328 319 312 316 312 295 282 263 237 212 188 173
132 131 133 131 126 125 123 118 107 98 85 73 52 58 50 40 28 13 12 5 1 358 347 346 350 348 344 345 335 338 350 339 330 317 320 313 313 317 302 278 247 207 159
137 134 133 130 127 128 128 125 118 104 85 71 58 49 35 30 26 21 16 7 1 356 347 342 355 354 355 356 354 346 345 344 346 336 335 335 325 316 319 307 220 134 125
134 130 128 127 125 120 113 109 106 91 83 80 74 62 38 25 23 26 25 13 6 360 353 353 356 353 0 356 1 357 5 7 2 357 358 341 337 340 332 356 82 114 127
123 123 123 123 118 115 111 108 100 88 81 77 70 57 40 33 28 23 20 16 8 1 1 1 8 10 12 14 18 18 19 20 18 18 14 9 9 12 31 59 98 107 115
126 127 125 119 118 117 112 109 97 83 72 65 62 56 43 38 36 29 23 17 10 10 8 11 16 23 27 23 20 27 31 34 35 34 32 28 27 30 59 73 93 110 113
136 136 129 125 122 120 118 103 87 75 66 59 54 55 50 49 46 36 25 22 13 17 17 21 30 32 33 23 15 23 46 46 45 49 52 54 58 57 71 88 94 108 115
143 138 135 137 136 132 122 105 98 96 87 72 59 54 47 50 51 33 25 30 21 18 25 30 38 40 36 22 23 23 40 51 57 65 72 76 70 71 77 85 86 101 120
142 140 136 130 123 116 108 109 103 104 99 86 68 61 48 53 56 41 41 36 29 28 37 41 48 53 37 26 23 24 41 56 58 60 65 77 81 75 90 95 89 79 82
138 132 128 125 120 114 107 102 99 101 96 88 77 68 60 57 65 59 50 45 36 35 43 44 49 54 38 24 22 19 46 68 66 68 69 76 72 70 83 100 97 91 79
126 125 126 124 123 118 111 109 101 88 84 82 76 68 63 58 67 71 58 54 52 52 54 50 45 51 39 22 19 12 54 66 65 65 61 68 68 52 61 96 102 99 95
119 123 125 124 123 118 124 128 119 104 93 84 76 70 69 67 72 70 65 63 60 67 66 61 52 54 47 27 24 12 62 80 84 79 68 59 59 50 55 83 97 98 98
123 126 125 126 128 134 138 129 116 103 92 83 76 75 77 84 85 76 70 78 70 70 73 72 67 62 52 44 34 30 45 65 89 90 78 59 53 58 56 69 84 100 105
130 130 129 128 129 135 139 124 110 101 100 93 86 83 84 95 95 95 85 78 90 91 91 92 88 74 57 45 38 36 37 38 69 81 84 78 64 63 61 70 73 70 64
133 134 135 134 137 144 143 122 115 113 107 104 94 90 89 82 91 117 121 104 81 81 102 104 96 88 80 61 48 46 45 46 61 74 96 100 81 65 75 78 61 35 15
137 140 140 136 134 136 131 125 126 124 120 117 115 116 110 100 80 50 51 57 48 21 34 91 93 95 75 49 29 42 76 78 88 97 115 124 35 334 89 156 200 224 77
136 142 142 135 127 123 123 130 132 134 128 124 130 133 116 104 86 66 40 43 49 41 26 29 48 82 86 41 15 13 17 21 25 344 213 193 192 193 196 194 199 194 173
140 140 138 134 131 132 131 131 130 134 138 144 146 147 141 138 141 129 103 53 71 74 67 57 55 73 99 122 65 49 28 14 5 347 286 235 212 200 184 182 177 168 155